Weather History for York, NE

Change the Weather History Date:

Sunday, January 5, 2014

  Actual Average Record
Temperature  
Mean Temperature 2 °F -  
Max Temperature 10 °F 32 °F 68 °F (2012)
Min Temperature -7 °F 11 °F -10 °F (1971)
Degree Days  
Heating Degree Days 64    
Moisture  
Dew Point -10 °F    
Average Humidity 54    
Maximum Humidity 72    
Minimum Humidity 40    
Precipitation  
Precipitation 0.00 in - - ()
Sea Level Pressure  
Sea Level Pressure 30.38 in    
Wind  
Wind Speed 20 mph (NNW)    
Max Wind Speed 28 mph    
Max Gust Speed 37 mph    
Visibility 10 miles    
Events      
Averages and records for this station are not official NWS values.
T = Trace of Precipitation, MM = Missing Value Source: NWS Daily Summary

Daily Weather History Graph

Daily Weather History Graph

Search for Another Location

Airport:

Trip Planner

Search our weather history database for the weather conditions in past years. The results will help you decide how hot, cold, wet, or windy it might be!

Date:

Astronomy

Jan. 05, 2014 Rise Set
Actual Time 7:55 AM CST 5:16 PM CST
Civil Twilight 7:24 AM CST 5:47 PM CST
Nautical Twilight 6:50 AM CST 6:22 PM CST
Astronomical Twilight 6:16 AM CST 6:55 PM CST
Moon 10:35 AM CST (1/5) 10:48 PM CST (1/5)
Length of Visible Light 10h 23m
Length of Day
9h 21m
Waxing Crescent, 25% of the Moon is Illuminated
Jan 5
Waxing Crescent
Jan 7
First Quarter
Jan 15
Full
Jan 23
Last Quarter
Jan 30
New

Hourly Weather History & Observations

Time (CST) Temp. Windchill Dew Point Humidity Pressure Visibility Wind Dir Wind Speed Gust Speed Precip Events Conditions
12:15 AM 8.6 °F -10.0 °F -0.4 °F 67% 30.22 in 10.0 mi North 18.4 mph 25.3 mph N/A   Mostly Cloudy
12:35 AM 8.6 °F -11.0 °F -0.4 °F 67% 30.22 in 10.0 mi North 20.7 mph 25.3 mph N/A   Mostly Cloudy
12:55 AM 6.8 °F -13.4 °F -0.4 °F 72% 30.23 in 10.0 mi North 20.7 mph 26.5 mph N/A   Mostly Cloudy
1:15 AM 6.8 °F -12.4 °F -0.4 °F 72% 30.23 in 10.0 mi North 18.4 mph 24.2 mph N/A   Overcast
1:35 AM 6.8 °F -11.3 °F -0.4 °F 72% 30.23 in 10.0 mi North 16.1 mph 23.0 mph N/A   Overcast
1:55 AM 6.8 °F -13.8 °F -0.4 °F 72% 30.22 in 10.0 mi North 21.9 mph 26.5 mph N/A   Overcast
2:15 AM 6.8 °F -12.9 °F -0.4 °F 72% 30.24 in 10.0 mi North 19.6 mph 23.0 mph N/A   Overcast
2:35 AM 6.8 °F -14.3 °F -2.2 °F 67% 30.24 in 10.0 mi North 23.0 mph 27.6 mph N/A   Overcast
2:55 AM 6.8 °F -13.4 °F -4.0 °F 61% 30.24 in 10.0 mi North 20.7 mph 27.6 mph N/A   Overcast
3:15 AM 5.0 °F -13.6 °F -4.0 °F 66% 30.26 in 10.0 mi North 16.1 mph 26.5 mph N/A   Scattered Clouds
3:35 AM 5.0 °F -15.2 °F -4.0 °F 66% 30.26 in 10.0 mi North 19.6 mph 26.5 mph N/A   Scattered Clouds
3:55 AM 5.0 °F -13.6 °F -4.0 °F 66% 30.27 in 10.0 mi North 16.1 mph 23.0 mph N/A   Mostly Cloudy
4:15 AM 5.0 °F -14.7 °F -4.0 °F 66% 30.26 in 10.0 mi North 18.4 mph 25.3 mph N/A   Overcast
4:35 AM 5.0 °F -13.6 °F -4.0 °F 66% 30.26 in 10.0 mi North 16.1 mph 25.3 mph N/A   Overcast
4:55 AM 5.0 °F -13.6 °F -5.8 °F 61% 30.26 in 10.0 mi North 16.1 mph 27.6 mph N/A   Overcast
5:15 AM 5.0 °F -16.2 °F -7.6 °F 56% 30.27 in 10.0 mi North 21.9 mph 27.6 mph N/A   Overcast
5:35 AM 5.0 °F -17.5 °F -7.6 °F 56% 30.27 in 10.0 mi North 25.3 mph 32.2 mph N/A   Overcast
5:55 AM 3.2 °F -19.9 °F -7.6 °F 61% 30.28 in 10.0 mi North 25.3 mph 35.7 mph N/A   Overcast
6:15 AM 3.2 °F -19.0 °F -7.6 °F 61% 30.29 in 10.0 mi North 23.0 mph 31.1 mph N/A   Overcast
6:35 AM 1.4 °F -20.5 °F -11.2 °F 56% 30.30 in 10.0 mi North 20.7 mph 34.5 mph N/A   Overcast
6:55 AM 1.4 °F -21.4 °F -11.2 °F 56% 30.30 in 10.0 mi North 23.0 mph 29.9 mph N/A   Overcast
7:15 AM 1.4 °F -22.3 °F -11.2 °F 56% 30.31 in 10.0 mi North 25.3 mph 31.1 mph N/A   Mostly Cloudy
7:35 AM -0.4 °F -24.3 °F -11.2 °F 60% 30.32 in 10.0 mi North 24.2 mph 32.2 mph N/A   Overcast
7:55 AM -0.4 °F -22.3 °F -9.4 °F 66% 30.33 in 10.0 mi North 19.6 mph 26.5 mph N/A   Overcast
8:15 AM 1.4 °F -22.3 °F -9.4 °F 61% 30.33 in 10.0 mi North 25.3 mph 33.4 mph N/A   Overcast
8:35 AM 1.4 °F -22.3 °F -11.2 °F 56% 30.33 in 10.0 mi North 25.3 mph 31.1 mph N/A   Overcast
8:55 AM 1.4 °F -19.9 °F -11.2 °F 56% 30.34 in 10.0 mi North 19.6 mph 28.8 mph N/A   Overcast
9:15 AM 1.4 °F -23.2 °F -9.4 °F 61% 30.35 in 10.0 mi North 27.6 mph 33.4 mph N/A   Mostly Cloudy
9:35 AM 1.4 °F -21.4 °F -9.4 °F 61% 30.37 in 10.0 mi North 23.0 mph 32.2 mph N/A   Scattered Clouds
9:55 AM 3.2 °F -17.1 °F -9.4 °F 56% 30.37 in 10.0 mi North 18.4 mph 32.2 mph N/A   Clear
10:15 AM 3.2 °F -18.1 °F -9.4 °F 56% 30.38 in 10.0 mi North 20.7 mph 27.6 mph N/A   Clear
10:35 AM 3.2 °F -15.9 °F -9.4 °F 56% 30.39 in 10.0 mi North 16.1 mph 31.1 mph N/A   Scattered Clouds
10:55 AM 6.8 °F -14.7 °F -9.4 °F 48% 30.38 in 10.0 mi North 24.2 mph 33.4 mph N/A   Partly Cloudy
11:15 AM 6.8 °F -15.1 °F -9.4 °F 48% 30.39 in 10.0 mi North 25.3 mph 32.2 mph N/A   Clear
11:35 AM 8.6 °F -12.7 °F -7.6 °F 48% 30.38 in 10.0 mi North 25.3 mph 32.2 mph N/A   Partly Cloudy
11:55 AM 8.6 °F -10.5 °F -7.6 °F 48% 30.37 in 10.0 mi North 19.6 mph 31.1 mph N/A   Scattered Clouds
12:15 PM 8.6 °F -10.5 °F -7.6 °F 48% 30.37 in 10.0 mi North 19.6 mph 32.2 mph N/A   Mostly Cloudy
12:35 PM 10.4 °F -9.9 °F -7.6 °F 44% 30.36 in 10.0 mi North 24.2 mph 36.8 mph N/A   Mostly Cloudy
12:55 PM 10.4 °F -11.0 °F -7.6 °F 44% 30.36 in 10.0 mi North 27.6 mph 35.7 mph N/A   Scattered Clouds
1:15 PM 10.4 °F -10.3 °F -7.6 °F 44% 30.36 in 10.0 mi North 25.3 mph 35.7 mph N/A   Scattered Clouds
1:35 PM 10.4 °F -9.1 °F -5.8 °F 48% 30.36 in 10.0 mi North 21.9 mph 34.5 mph N/A   Scattered Clouds
1:55 PM 10.4 °F -8.2 °F -7.6 °F 44% 30.37 in 10.0 mi NNW 19.6 mph 29.9 mph N/A   Scattered Clouds
2:15 PM 10.4 °F -9.1 °F -7.6 °F 44% 30.37 in 10.0 mi NNW 21.9 mph 33.4 mph N/A   Partly Cloudy
2:35 PM 10.4 °F -8.2 °F -7.6 °F 44% 30.38 in 10.0 mi North 19.6 mph 32.2 mph N/A   Clear
2:55 PM 10.4 °F -7.7 °F -7.6 °F 44% 30.39 in 10.0 mi NNW 18.4 mph 28.8 mph N/A   Clear
3:15 PM 8.6 °F -11.9 °F -7.6 °F 48% 30.40 in 10.0 mi North 23.0 mph 35.7 mph N/A   Partly Cloudy
3:35 PM 8.6 °F -9.5 °F -9.4 °F 44% 30.41 in 10.0 mi NNW 17.3 mph 32.2 mph N/A   Partly Cloudy
3:55 PM 8.6 °F -11.0 °F -9.4 °F 44% 30.42 in 10.0 mi North 20.7 mph 27.6 mph N/A   Clear
4:15 PM 8.6 °F -10.5 °F -11.2 °F 40% 30.43 in 10.0 mi NNW 19.6 mph 31.1 mph N/A   Clear
4:35 PM 6.8 °F -11.3 °F -13.0 °F 40% 30.44 in 10.0 mi NNW 16.1 mph 26.5 mph N/A   Partly Cloudy
4:55 PM 6.8 °F -10.0 °F -13.0 °F 40% 30.45 in 10.0 mi NNW 13.8 mph 21.9 mph N/A   Partly Cloudy
5:15 PM 6.8 °F -13.4 °F -11.2 °F 44% 30.45 in 10.0 mi NNW 20.7 mph 27.6 mph N/A   Mostly Cloudy
5:35 PM 5.0 °F -14.7 °F -7.6 °F 56% 30.46 in 10.0 mi NNW 18.4 mph 32.2 mph N/A   Mostly Cloudy
5:55 PM 3.2 °F -15.3 °F -11.2 °F 51% 30.47 in 10.0 mi NNW 15.0 mph 27.6 mph N/A   Mostly Cloudy
6:15 PM 1.4 °F -21.0 °F -13.0 °F 51% 30.48 in 10.0 mi NNW 21.9 mph 27.6 mph N/A   Partly Cloudy
6:35 PM -0.4 °F -23.3 °F -14.8 °F 51% 30.49 in 10.0 mi NNW 21.9 mph 28.8 mph N/A   Partly Cloudy
6:55 PM -0.4 °F -19.9 °F -18.4 °F 43% 30.50 in 10.0 mi NNW 15.0 mph 24.2 mph N/A   Clear
7:15 PM -2.2 °F -22.9 °F -20.2 °F 42% 30.51 in 10.0 mi NNW 16.1 mph 26.5 mph N/A   Clear
7:35 PM -2.2 °F -25.2 °F -20.2 °F 42% 30.51 in 10.0 mi NNW 20.7 mph 27.6 mph N/A   Clear
7:55 PM -4.0 °F -22.1 °F -20.2 °F 46% 30.52 in 10.0 mi NNW 11.5 mph 21.9 mph N/A   Clear
8:15 PM -4.0 °F -23.7 °F -20.2 °F 46% 30.52 in 10.0 mi NNW 13.8 mph 17.3 mph N/A   Clear
8:35 PM -4.0 °F -24.5 °F -20.2 °F 46% 30.52 in 10.0 mi NNW 15.0 mph 18.4 mph N/A   Clear
8:55 PM -4.0 °F -24.5 °F -20.2 °F 46% 30.53 in 10.0 mi NNW 15.0 mph 19.6 mph N/A   Clear
9:15 PM -4.0 °F -22.1 °F -22.0 °F 42% 30.52 in 10.0 mi NNW 11.5 mph - N/A   Clear
9:35 PM -5.8 °F -26.8 °F -20.2 °F 50% 30.52 in 10.0 mi NNW 15.0 mph 18.4 mph N/A   Clear
9:55 PM -5.8 °F -25.2 °F -22.0 °F 46% 30.52 in 10.0 mi NW 12.7 mph - N/A   Clear
10:15 PM -5.8 °F -26.0 °F -22.0 °F 46% 30.51 in 10.0 mi NW 13.8 mph - N/A   Clear
10:35 PM -7.6 °F -26.6 °F -22.0 °F 50% 30.51 in 10.0 mi NW 11.5 mph - N/A   Clear
10:55 PM -7.6 °F -26.6 °F -20.2 °F 54% 30.51 in 10.0 mi NW 11.5 mph - N/A   Clear
11:15 PM -7.6 °F -27.5 °F -20.2 °F 54% 30.50 in 10.0 mi NW 12.7 mph - N/A   Clear
11:35 PM -7.6 °F -26.6 °F -20.2 °F 54% 30.50 in 10.0 mi NW 11.5 mph - N/A   Clear
11:55 PM -7.6 °F -29.1 °F -20.2 °F 54% 30.49 in 10.0 mi WNW 15.0 mph - N/A   Clear